SKYSAT C4

导读

SKYSAT C4是美国发射的高分辨率遥感卫星,于美国东部时间2016年9月16日8时成功发射升空。该卫星属于SkySat系列卫星星座,主要用于获取全球各地高分辨率光学遥感影像,可服务于城市规划、灾害监测、资源调查、地理信息测绘等多个领域,能够提供精度较高的地表观测数据,进一步增强了该星座对地观测的整体能力。

Basic Information
目录编号:
41771
目录名称:
SKYSAT C4
国际标识:
2016-058B
轨道中心:
EARTH
卫星名称:
SKYSAT C4
卫星全名:
--
卫星状态:
在轨 (已飞行3648 天)
发射日期:
2016-09-16 UTC
国别 :
美国 (US)
星等 :
--
This satellite is enrolled in the Space Conjunction Data Service (SCDS) and the current flight risk assessment level is: No High Risk
Orbit Information
数据来源 国际轨道数据
星历时间: 2026-09-12T02:49:08+0800
11小时前
查看轨道信息
半长轴: 6791.685km
偏心率: 0.0000535
轨道倾角: 96.916°
近地点辐角 46.636°
升交点赤经 273.070°
平近点角 313.493°
近地点: 413.184km
远地点: 413.912km
周期: 92.838分钟
每日圈数: 15.510881
Detailed Information
使用方式:
暂无
2D Orbit Map
3D Orbit Map
Orbit Altitude Analysis Chart
Orbit Inclination Analysis Chart
Orbit Comprehensive Analysis Chart
View Comprehensive Chart
Conjunction Data List
Event ID Objects TCA Miss Dist (km) Collision Risk Probability Collision Risk Index (CRI) Action
CDM_260912-120304-177104-755521
2026-09-12T
12:03:43+0000
0.626 km
远距离
8.808313E-5 中风险 0.74
CDM_260913-234004-177104-755521
2026-09-13T
23:40:52+0000
1.043 km
极远距离
1.798744E-5 中风险 0.6
CDM_260912-103004-177104-755523
2026-09-12T
10:30:47+0000
1.075 km
极远距离
1.537969E-5 中风险 0.59
CDM_260912-133604-177104-755521
2026-09-12T
13:36:39+0000
1.136 km
极远距离
1.276355E-5 中风险 0.57
CDM_260914-011304-177104-755521
2026-09-14T
01:13:47+0000
1.272 km
极远距离
9.046104E-6 低风险 0.54
CDM_260913-220704-177104-755521
2026-09-13T
22:07:58+0000
1.372 km
极远距离
6.968008E-6 低风险 0.52
CDM_260912-150904-177104-755521
2026-09-12T
15:09:34+0000
1.845 km
极远距离
2.681793E-6 低风险 0.44
CDM_260913-203504-177104-755521
2026-09-13T
20:35:03+0000
1.923 km
极远距离
2.488711E-6 低风险 0.43
CDM_260914-024604-177104-755521
2026-09-14T
02:46:42+0000
1.947 km
极远距离
2.426254E-6 低风险 0.43
CDM_260912-085704-177104-755523
2026-09-12T
08:57:52+0000
2.022 km
极远距离
2.098439E-6 低风险 0.41
Miss Distance Evolution Trend with All Objects
Collision Probability Evolution Trend with All Objects